TimeCST,TemperatureF,Dew PointF,Humidity,Sea Level PressureIn,VisibilityMPH,Wind Direction,Wind SpeedMPH,Gust SpeedMPH,PrecipitationIn,Events,Conditions,WindDirDegrees,DateUTC
12:39 AM,37.4,35.6,93,30.05,2.0,NW,6.9,-,0.01,,Overcast,320,2013-01-17 06:39:00
12:56 AM,37.0,36.0,96,30.09,2.5,NW,6.9,-,0.02,,Overcast,310,2013-01-17 06:56:00
1:07 AM,37.4,35.6,93,30.05,3.0,NW,8.1,-,N/A,,Overcast,310,2013-01-17 07:07:00
1:35 AM,37.4,35.6,93,30.04,4.0,NNW,9.2,-,0.00,,Overcast,330,2013-01-17 07:35:00
1:56 AM,37.0,35.1,93,30.09,5.0,NW,9.2,-,0.00,,Overcast,310,2013-01-17 07:56:00
2:09 AM,37.4,35.6,93,30.05,5.0,WNW,9.2,-,N/A,,Overcast,300,2013-01-17 08:09:00
2:32 AM,37.4,35.6,93,30.05,2.5,WNW,10.4,-,0.01,,Overcast,300,2013-01-17 08:32:00
2:44 AM,37.4,35.6,93,30.04,3.0,NW,8.1,-,0.01,,Overcast,310,2013-01-17 08:44:00
2:48 AM,37.4,35.6,93,30.04,2.5,WNW,6.9,-,0.01,,Overcast,300,2013-01-17 08:48:00
2:56 AM,37.0,35.1,93,30.08,2.5,WNW,9.2,-,0.01,,Overcast,300,2013-01-17 08:56:00
3:56 AM,36.0,34.0,93,30.07,2.5,WNW,11.5,-,N/A,,Overcast,300,2013-01-17 09:56:00
4:56 AM,36.0,34.0,93,30.09,2.0,WNW,18.4,25.3,0.01,,Overcast,300,2013-01-17 10:56:00
5:10 AM,35.6,33.8,93,30.05,1.8,NW,18.4,25.3,0.00,,Overcast,310,2013-01-17 11:10:00
5:39 AM,33.8,30.2,87,30.07,2.0,WNW,17.3,21.9,0.00,,Overcast,300,2013-01-17 11:39:00
5:51 AM,33.8,30.2,87,30.08,1.5,NW,18.4,28.8,0.00,Snow,Light Snow,310,2013-01-17 11:51:00
5:58 AM,33.8,30.2,87,30.08,1.2,NW,16.1,29.9,0.00,Snow,Light Snow,310,2013-01-17 11:58:00
6:14 AM,32.0,30.2,93,30.08,1.0,NW,15.0,23.0,0.00,Snow,Light Snow,320,2013-01-17 12:14:00
6:16 AM,32.0,30.2,93,30.09,1.2,NW,16.1,-,0.00,Snow,Light Snow,310,2013-01-17 12:16:00
6:46 AM,32.0,30.2,93,30.10,2.0,NW,15.0,21.9,0.00,Snow,Light Snow,320,2013-01-17 12:46:00
6:56 AM,32.0,30.0,92,30.14,2.5,NW,15.0,25.3,0.00,Snow,Light Snow,320,2013-01-17 12:56:00
7:15 AM,32.0,30.2,93,30.10,0.5,NW,13.8,-,0.00,Snow,Light Snow,320,2013-01-17 13:15:00
7:56 AM,32.0,30.0,92,30.17,0.5,WNW,15.0,-,0.01,Fog-Snow,Snow,300,2013-01-17 13:56:00
8:51 AM,32.0,30.2,93,30.15,0.2,WNW,16.1,-,0.00,Fog-Snow,Snow,300,2013-01-17 14:51:00
8:56 AM,32.0,30.9,96,30.19,0.2,NW,17.3,-,0.00,Fog-Snow,Snow,310,2013-01-17 14:56:00
9:12 AM,33.8,30.2,87,30.16,0.5,NW,16.1,-,0.01,Fog-Snow,Light Snow,310,2013-01-17 15:12:00
9:56 AM,34.0,32.0,92,30.22,0.8,NW,13.8,-,0.01,Snow,Light Snow,310,2013-01-17 15:56:00
10:56 AM,35.1,32.0,89,30.22,0.8,WNW,15.0,-,0.01,Snow,Light Snow,300,2013-01-17 16:56:00
11:26 AM,35.6,33.8,93,30.18,6.0,WNW,16.1,-,0.00,Snow,Light Snow,300,2013-01-17 17:26:00
11:56 AM,37.0,34.0,89,30.22,10.0,NW,16.1,23.0,0.00,Rain,Light Rain,310,2013-01-17 17:56:00
12:37 PM,37.4,33.8,87,30.19,10.0,NW,16.1,31.1,N/A,,Overcast,310,2013-01-17 18:37:00
12:56 PM,37.9,33.1,83,30.23,10.0,WNW,17.3,-,N/A,,Overcast,290,2013-01-17 18:56:00
1:56 PM,41.0,34.0,76,30.24,10.0,NW,16.1,27.6,N/A,,Overcast,310,2013-01-17 19:56:00
2:56 PM,43.0,34.0,71,30.25,10.0,WNW,17.3,-,N/A,,Overcast,300,2013-01-17 20:56:00
3:56 PM,45.0,34.0,65,30.28,10.0,NW,15.0,21.9,N/A,,Partly Cloudy,320,2013-01-17 21:56:00
4:56 PM,44.1,34.0,68,30.32,10.0,NW,10.4,-,N/A,,Clear,310,2013-01-17 22:56:00
5:56 PM,41.0,34.0,76,30.37,10.0,NW,9.2,-,N/A,,Clear,310,2013-01-17 23:56:00
6:56 PM,39.9,34.0,79,30.40,10.0,NW,6.9,-,N/A,,Clear,310,2013-01-18 00:56:00
7:56 PM,37.0,33.1,86,30.41,10.0,NNW,5.8,-,N/A,,Clear,330,2013-01-18 01:56:00
8:56 PM,37.0,33.1,86,30.42,10.0,NW,4.6,-,N/A,,Clear,310,2013-01-18 02:56:00
9:56 PM,36.0,33.1,89,30.44,10.0,NW,5.8,-,N/A,,Clear,320,2013-01-18 03:56:00
10:56 PM,36.0,32.0,86,30.45,10.0,NW,5.8,-,N/A,,Clear,320,2013-01-18 04:56:00
11:56 PM,36.0,33.1,89,30.47,8.0,NNW,5.8,-,N/A,,Clear,340,2013-01-18 05:56:00